| time (UTC) | temp F | wind direction | speed MPH | gust MPH | rain 1hr in | rain 24hr in | rain mn in | humidity % | barometer mb |
| 20260508050057 | 43 | 0 | 0.0 | 0.0 | 0.00 | 0.17 | 0.00 | 93 | 1016.8 |
| 20260508044600 | 43 | 0 | 0.0 | 0.0 | 0.00 | 0.29 | 0.00 | 93 | 1016.8 |
| 20260508043054 | 43 | 0 | 0.0 | 2.0 | 0.00 | 0.29 | 0.00 | 92 | 1016.6 |
| 20260508041554 | 43 | 0 | 0.0 | 2.0 | 0.00 | 0.29 | 0.00 | 92 | 1016.6 |
| 20260508040059 | 43 | 0 | 0.0 | 2.0 | 0.00 | 0.29 | 0.00 | 91 | 1016.6 |
| 20260508034551 | 44 | 0 | 0.0 | 1.0 | 0.00 | 0.32 | 0.29 | 91 | 1016.6 |
| 20260508033115 | 44 | 0 | 0.0 | 1.0 | 0.00 | 0.32 | 0.29 | 91 | 1016.6 |
| 20260508031609 | 44 | 0 | 0.0 | 2.0 | 0.00 | 0.32 | 0.29 | 91 | 1016.6 |
| 20260508030111 | 44 | 0 | 0.0 | 2.0 | 0.00 | 0.32 | 0.29 | 91 | 1016.6 |
| 20260508024621 | 44 | 0 | 0.0 | 1.0 | 0.00 | 0.33 | 0.29 | 90 | 1016.7 |
| 20260508023058 | 44 | 0 | 0.0 | 1.0 | 0.00 | 0.33 | 0.29 | 90 | 1016.5 |
| 20260508021559 | 45 | 0 | 0.0 | 1.0 | 0.00 | 0.33 | 0.29 | 89 | 1016.0 |
| 20260508020107 | 45 | 0 | 0.0 | 0.0 | 0.00 | 0.33 | 0.29 | 89 | 1015.8 |
| 20260508014611 | 46 | 142 | 0.0 | 1.0 | 0.00 | 0.38 | 0.29 | 88 | 1015.7 |
| 20260508013106 | 47 | 0 | 0.0 | 0.0 | 0.00 | 0.38 | 0.29 | 87 | 1015.5 |
| 20260508011601 | 47 | 0 | 0.0 | 3.0 | 0.00 | 0.38 | 0.29 | 86 | 1015.4 |
| 20260508010106 | 48 | 0 | 0.0 | 2.0 | 0.00 | 0.38 | 0.29 | 85 | 1015.1 |
| 20260508004554 | 49 | 142 | 2.0 | 3.0 | 0.00 | 0.44 | 0.29 | 83 | 1015.0 |
| 20260508003056 | 50 | 0 | 0.0 | 2.0 | 0.00 | 0.44 | 0.29 | 81 | 1015.0 |
| 20260508001555 | 52 | 0 | 0.0 | 9.0 | 0.00 | 0.44 | 0.29 | 76 | 1014.8 |
| 20260508000055 | 52 | 114 | 1.0 | 6.0 | 0.00 | 0.44 | 0.29 | 77 | 1014.5 |
| 20260507234553 | 53 | 84 | 1.0 | 4.0 | 0.00 | 0.50 | 0.29 | 77 | 1014.5 |
| 20260507233049 | 53 | 253 | 2.0 | 5.0 | 0.00 | 0.50 | 0.29 | 76 | 1014.4 |
| 20260507231552 | 54 | 121 | 0.0 | 5.0 | 0.00 | 0.50 | 0.29 | 78 | 1014.2 |
| 20260507230053 | 54 | 13 | 3.0 | 8.0 | 0.00 | 0.50 | 0.29 | 79 | 1014.3 |
| 20260507224551 | 53 | 91 | 2.0 | 6.0 | 0.00 | 0.52 | 0.29 | 83 | 1014.3 |
| 20260507223053 | 53 | 44 | 2.0 | 8.0 | 0.00 | 0.52 | 0.29 | 83 | 1014.0 |
| 20260507221556 | 53 | 66 | 2.0 | 8.0 | 0.00 | 0.52 | 0.29 | 81 | 1014.0 |
| 20260507220056 | 53 | 96 | 4.0 | 11.0 | 0.00 | 0.52 | 0.29 | 80 | 1013.7 |
| 20260507214555 | 54 | 81 | 2.0 | 5.0 | 0.00 | 0.55 | 0.29 | 82 | 1013.4 |
| 20260507213057 | 54 | 51 | 3.0 | 10.0 | 0.00 | 0.55 | 0.29 | 82 | 1013.2 |
| 20260507211555 | 55 | 72 | 4.0 | 10.0 | 0.00 | 0.55 | 0.29 | 82 | 1012.9 |
| 20260507210054 | 56 | 351 | 2.0 | 9.0 | 0.00 | 0.55 | 0.29 | 82 | 1012.4 |
| 20260507204602 | 57 | 9 | 2.0 | 5.0 | 0.00 | 0.55 | 0.29 | 81 | 1012.2 |
| 20260507203054 | 57 | 46 | 2.0 | 9.0 | 0.00 | 0.55 | 0.29 | 82 | 1012.3 |
| 20260507201556 | 58 | 51 | 1.0 | 4.0 | 0.00 | 0.55 | 0.29 | 81 | 1012.2 |
| 20260507200051 | 59 | 88 | 2.0 | 8.0 | 0.00 | 0.55 | 0.29 | 79 | 1012.3 |
| 20260507194603 | 60 | 317 | 2.0 | 7.0 | 0.00 | 0.55 | 0.29 | 81 | 1012.2 |
| 20260507193056 | 60 | 246 | 2.0 | 4.0 | 0.00 | 0.55 | 0.29 | 84 | 1012.1 |
| 20260507191602 | 60 | 336 | 2.0 | 4.0 | 0.00 | 0.55 | 0.29 | 79 | 1012.5 |
| 20260507190052 | 62 | 313 | 3.0 | 9.0 | 0.00 | 0.55 | 0.29 | 80 | 1012.2 |
| 20260507184556 | 60 | 241 | 5.0 | 11.0 | 0.00 | 0.55 | 0.29 | 78 | 1012.4 |
| 20260507183055 | 61 | 214 | 3.0 | 12.0 | 0.00 | 0.55 | 0.29 | 78 | 1012.7 |
| 20260507181554 | 61 | 252 | 3.0 | 10.0 | 0.00 | 0.55 | 0.29 | 80 | 1012.9 |
| 20260507180055 | 61 | 205 | 4.0 | 12.0 | 0.00 | 0.55 | 0.29 | 83 | 1012.5 |
| 20260507174556 | 61 | 225 | 1.0 | 8.0 | 0.00 | 0.55 | 0.29 | 84 | 1012.7 |
| 20260507173101 | 61 | 203 | 3.0 | 7.0 | 0.00 | 0.55 | 0.29 | 82 | 1012.7 |
| 20260507171557 | 60 | 0 | 1.0 | 4.0 | 0.00 | 0.55 | 0.29 | 87 | 1012.5 |
| 20260507170056 | 60 | 0 | 0.0 | 3.0 | 0.00 | 0.55 | 0.29 | 88 | 1012.7 |
| 20260507164552 | 59 | 0 | 0.0 | 5.0 | 0.00 | 0.56 | 0.29 | 91 | 1012.3 |
| 20260507163057 | 57 | 51 | 2.0 | 7.0 | 0.00 | 0.56 | 0.29 | 92 | 1012.2 |
| 20260507161556 | 58 | 147 | 2.0 | 7.0 | 0.00 | 0.56 | 0.29 | 92 | 1012.4 |
| 20260507160057 | 59 | 96 | 3.0 | 7.0 | 0.00 | 0.56 | 0.29 | 90 | 1012.7 |
| 20260507154555 | 63 | 136 | 1.0 | 9.0 | 0.00 | 0.72 | 0.29 | 84 | 1012.4 |
| 20260507153101 | 63 | 240 | 5.0 | 7.0 | 0.00 | 0.72 | 0.29 | 89 | 1012.3 |
| 20260507151554 | 61 | 236 | 3.0 | 7.0 | 0.00 | 0.72 | 0.29 | 93 | 1012.4 |
| 20260507144553 | 60 | 95 | 2.0 | 7.0 | 0.00 | 0.78 | 0.29 | 94 | 1012.0 |
| 20260507143105 | 60 | 232 | 4.0 | 7.0 | 0.00 | 0.78 | 0.29 | 96 | 1012.3 |
| 20260507141557 | 59 | 0 | 0.0 | 3.0 | 0.00 | 0.78 | 0.29 | 97 | 1012.4 |
| 20260507134553 | 58 | 282 | 0.0 | 2.0 | 0.00 | 0.79 | 0.29 | 97 | 1012.5 |
| 20260507133105 | 58 | 185 | 1.0 | 3.0 | 0.00 | 0.79 | 0.29 | 97 | 1012.5 |
| 20260507131557 | 57 | 236 | 2.0 | 5.0 | 0.00 | 0.79 | 0.29 | 97 | 1012.9 |
| 20260507130108 | 58 | 214 | 1.0 | 4.0 | 0.01 | 0.79 | 0.29 | 97 | 1012.5 |
| 20260507124558 | 57 | 0 | 0.0 | 0.0 | 0.01 | 0.79 | 0.29 | 97 | 1012.5 |
| 20260507123057 | 57 | 0 | 0.0 | 0.0 | 0.01 | 0.79 | 0.29 | 97 | 1012.8 |
| 20260507121601 | 57 | 0 | 0.0 | 1.0 | 0.01 | 0.79 | 0.29 | 97 | 1012.4 |
| 20260507120053 | 57 | 0 | 0.0 | 0.0 | 0.03 | 0.78 | 0.28 | 97 | 1012.3 |
| 20260507114550 | 56 | 0 | 0.0 | 0.0 | 0.10 | 0.78 | 0.28 | 97 | 1012.7 |
| 20260507113052 | 56 | 0 | 0.0 | 0.0 | 0.13 | 0.78 | 0.28 | 97 | 1012.9 |
| 20260507111552 | 56 | 0 | 0.0 | 0.0 | 0.13 | 0.77 | 0.27 | 97 | 1013.2 |
| 20260507110101 | 56 | 0 | 0.0 | 0.0 | 0.11 | 0.75 | 0.25 | 97 | 1013.5 |
| 20260507104557 | 56 | 0 | 0.0 | 0.0 | 0.04 | 0.68 | 0.18 | 97 | 1013.7 |
| 20260507103117 | 56 | 0 | 0.0 | 0.0 | 0.01 | 0.65 | 0.15 | 97 | 1013.1 |
| 20260507101550 | 56 | 0 | 0.0 | 0.0 | 0.00 | 0.64 | 0.14 | 97 | 1012.8 |
| 20260507100103 | 56 | 0 | 0.0 | 2.0 | 0.00 | 0.64 | 0.14 | 97 | 1012.8 |
| 20260507094556 | 55 | 30 | 0.0 | 2.0 | 0.00 | 0.64 | 0.14 | 97 | 1013.0 |
| 20260507093050 | 55 | 0 | 0.0 | 0.0 | 0.00 | 0.64 | 0.14 | 97 | 1012.1 |
| 20260507091554 | 55 | 0 | 0.0 | 0.0 | 0.00 | 0.64 | 0.14 | 97 | 1012.5 |
| 20260507090057 | 55 | 0 | 0.0 | 0.0 | 0.00 | 0.64 | 0.14 | 97 | 1012.5 |
| 20260507084604 | 55 | 0 | 0.0 | 0.0 | 0.00 | 0.64 | 0.14 | 97 | 1012.7 |
| 20260507083051 | 56 | 0 | 0.0 | 1.0 | 0.00 | 0.64 | 0.14 | 96 | 1012.5 |
| 20260507081552 | 56 | 0 | 0.0 | 1.0 | 0.00 | 0.64 | 0.14 | 97 | 1012.9 |
| 20260507080054 | 56 | 30 | 0.0 | 2.0 | 0.00 | 0.64 | 0.14 | 97 | 1012.9 |
| 20260507074552 | 57 | 0 | 0.0 | 1.0 | 0.00 | 0.64 | 0.14 | 97 | 1013.7 |
| 20260507073051 | 57 | 0 | 0.0 | 0.0 | 0.00 | 0.64 | 0.14 | 97 | 1013.2 |
| 20260507071557 | 57 | 0 | 0.0 | 0.0 | 0.00 | 0.64 | 0.14 | 97 | 1013.0 |
| 20260507070105 | 57 | 0 | 0.0 | 0.0 | 0.00 | 0.64 | 0.14 | 97 | 1013.1 |
| 20260507064558 | 57 | 30 | 0.0 | 2.0 | 0.01 | 0.64 | 0.14 | 97 | 1012.9 |
| 20260507063051 | 57 | 0 | 0.0 | 0.0 | 0.01 | 0.64 | 0.14 | 97 | 1013.9 |
| 20260507061554 | 57 | 0 | 0.0 | 0.0 | 0.01 | 0.64 | 0.14 | 97 | 1013.8 |
| 20260507060101 | 57 | 0 | 0.0 | 0.0 | 0.02 | 0.64 | 0.14 | 96 | 1014.3 |
| 20260507054608 | 58 | 0 | 0.0 | 0.0 | 0.08 | 0.63 | 0.13 | 96 | 1014.5 |
| 20260507053106 | 58 | 0 | 0.0 | 2.0 | 0.13 | 0.63 | 0.13 | 96 | 1015.0 |
| 20260507051557 | 58 | 0 | 0.0 | 0.0 | 0.13 | 0.63 | 0.13 | 97 | 1015.3 |